Regional Weather Roundup
Issued by NWS Sioux Falls, SD

Home | Current Version | Previous Version | Graphics & Text | Print | Product List | Glossary On
Versions: 1 2 3 4 5 6 7 8 9 10 11 12 13 14 15 16 17 18 19 20 21 22 23 24 25 26 27 28 29 30 31 32 33 34 35 36 37 38 39 40 41 42 43 44 45 46 47 48 49 50
000
ASUS43 KFSD 280302
RWRFSD

WEATHER ROUNDUP FOR SE SOUTH DAKOTA/SW MINNESOTA/NW IOWA
NATIONAL WEATHER SERVICE SIOUX FALLS SD
1000 PM CDT MON JUL 27 2015

NOTE: "FAIR" INDICATES FEW OR NO CLOUDS BELOW 12,000 FEET WITH NO
SIGNIFICANT WEATHER AND OR OBSTRUCTIONS TO VISIBILITY.


SDZ038>040-050-052>070-280400-
SOUTHEAST SOUTH DAKOTA

CITY           SKY/WX    TMP DP  RH WIND       PRES   REMARKS
BROOKINGS      CLEAR     77  72  83 SE12      29.83R
CHAMBERLAIN    NOT AVBL
HURON          CLEAR     80  75  84 SE10      29.74R
MADISON        FAIR      77  77 100 SE12      29.81R
MITCHELL       CLEAR     81  71  71 SE9       29.75R
SIOUX FALLS    PTCLDY    80  73  79 S16G23    29.81R
WINNER         FAIR      86  70  58 SE16      29.68F
YANKTON        PTCLDY    81  73  78 SE17G24   29.77R
$$

MNZ071-072-080-081-089-090-097-098-280400-
SOUTHWEST MINNESOTA

CITY           SKY/WX    TMP DP  RH WIND       PRES   REMARKS
FAIRMONT       CLEAR     73  63  68 SE10      29.89S
JACKSON        CLEAR     73  68  83 SE10      29.89S
LUVERNE        PTCLDY    77  70  78 SE8G20    29.85R
MARSHALL       CLEAR     77  68  73 SE14G20   29.84R
MONTEVIDEO     CLEAR     75  72  88 S10       29.85R
PIPESTONE      CLEAR     77  72  83 S9G21     29.85R
REDWOOD FALLS  CLEAR     76  69  79 SE12      29.85R
TRACY          CLEAR     77  72  83 SE10      29.85R
WINDOM         CLEAR     73  66  78 SE9       29.88R
WORTHINGTON    CLEAR     75  66  73 SE12G18   29.87R
$$

IAZ001>003-012>014-020>022-031-032-NEZ013-014-SDZ071-280400-
NORTHWEST IOWA

CITY           SKY/WX    TMP DP  RH WIND       PRES   REMARKS
DENISON        MOCLDY    73  70  88 SE16G23   29.85R
ESTHERVILLE    CLEAR     71  68  90 SE12      29.89R
SIOUX CITY     CLEAR     77  69  76 SE16      29.82R
SPENCER        PTCLDY    75  68  78 SE9       29.88R
$$

ABBREVIATIONS USED IN REMARKS
   TC - TEMPERATURE IN CELSIUS
  WCI - WIND CHILL INDEX
   HX - HEAT INDEX
  VSB - VISIBILITY



USA.gov is the U.S. government's official web portal to all federal, state and local government web resources and services.